Year,Month,Day,Hour,Minute,Value (Times are PST for temperature in C)
2015,08,19,00,00,16.70
2015,08,19,00,01,16.70
2015,08,19,00,02,16.70
2015,08,19,00,03,16.70
2015,08,19,00,04,16.60
2015,08,19,00,05,16.60
2015,08,19,00,06,16.60
2015,08,19,00,07,16.60
2015,08,19,00,08,16.60
2015,08,19,00,09,16.60
2015,08,19,00,10,16.60
2015,08,19,00,11,16.50
2015,08,19,00,12,16.50
2015,08,19,00,13,16.50
2015,08,19,00,14,16.50
2015,08,19,00,15,16.50
2015,08,19,00,16,16.50
2015,08,19,00,17,16.40
2015,08,19,00,18,16.40
2015,08,19,00,19,16.40
2015,08,19,00,20,16.40
2015,08,19,00,21,16.40
2015,08,19,00,22,16.40
2015,08,19,00,23,16.40
2015,08,19,00,24,16.40
2015,08,19,00,25,16.40
2015,08,19,00,26,16.40
2015,08,19,00,27,16.40
2015,08,19,00,28,16.40
2015,08,19,00,29,16.40
2015,08,19,00,30,16.40
2015,08,19,00,31,16.50
2015,08,19,00,32,16.50
2015,08,19,00,33,16.50
2015,08,19,00,34,16.50
2015,08,19,00,35,16.40
2015,08,19,00,36,16.40
2015,08,19,00,37,16.40
2015,08,19,00,38,16.40
2015,08,19,00,39,16.30
2015,08,19,00,40,16.30
2015,08,19,00,41,16.30
2015,08,19,00,42,16.30
2015,08,19,00,43,16.30
2015,08,19,00,44,16.30
2015,08,19,00,45,16.20
2015,08,19,00,46,16.20
2015,08,19,00,47,16.20
2015,08,19,00,48,16.20
2015,08,19,00,49,16.20
2015,08,19,00,50,16.20
2015,08,19,00,51,16.10
2015,08,19,00,52,16.10
2015,08,19,00,53,16.10
2015,08,19,00,54,16.10
2015,08,19,00,55,16.10
2015,08,19,00,56,16.10
2015,08,19,00,57,16.10
2015,08,19,00,58,16.10
2015,08,19,00,59,16.10
2015,08,19,01,00,16.10
2015,08,19,01,01,16.10
2015,08,19,01,02,16.00
2015,08,19,01,03,16.00
2015,08,19,01,04,16.00
2015,08,19,01,05,16.00
2015,08,19,01,06,16.00
2015,08,19,01,07,15.90
2015,08,19,01,08,15.90
2015,08,19,01,09,15.90
2015,08,19,01,10,15.90
2015,08,19,01,11,15.90
2015,08,19,01,12,15.90
2015,08,19,01,13,15.80
2015,08,19,01,14,15.80
2015,08,19,01,15,15.80
2015,08,19,01,16,15.80
2015,08,19,01,17,15.70
2015,08,19,01,18,15.70
2015,08,19,01,19,15.70
2015,08,19,01,20,15.70
2015,08,19,01,21,15.70
2015,08,19,01,22,15.60
2015,08,19,01,23,15.60
2015,08,19,01,24,15.60
2015,08,19,01,25,15.60
2015,08,19,01,26,15.50
2015,08,19,01,27,15.50
2015,08,19,01,28,15.50
2015,08,19,01,29,15.40
2015,08,19,01,30,15.40
2015,08,19,01,31,15.40
2015,08,19,01,32,15.40
2015,08,19,01,33,15.40
2015,08,19,01,34,15.40
2015,08,19,01,35,15.40
2015,08,19,01,36,15.40
2015,08,19,01,37,15.40
2015,08,19,01,38,15.40
2015,08,19,01,39,15.40
2015,08,19,01,40,15.40
2015,08,19,01,41,15.40
2015,08,19,01,42,15.40
2015,08,19,01,43,15.40
2015,08,19,01,44,15.40
2015,08,19,01,45,15.40
2015,08,19,01,46,15.30
2015,08,19,01,47,15.30
2015,08,19,01,48,15.30
2015,08,19,01,49,15.30
2015,08,19,01,50,15.30
2015,08,19,01,51,15.30
2015,08,19,01,52,15.20
2015,08,19,01,53,15.20
2015,08,19,01,54,15.20
2015,08,19,01,55,15.20
2015,08,19,01,56,15.20
2015,08,19,01,57,15.20
2015,08,19,01,58,15.20
2015,08,19,01,59,15.10
2015,08,19,02,00,15.10
2015,08,19,02,01,15.10
2015,08,19,02,02,15.00
2015,08,19,02,03,15.00
2015,08,19,02,04,15.00
2015,08,19,02,05,14.90
2015,08,19,02,06,14.90
2015,08,19,02,07,14.90
2015,08,19,02,08,14.90
2015,08,19,02,09,14.90
2015,08,19,02,10,14.90
2015,08,19,02,11,14.80
2015,08,19,02,12,14.80
2015,08,19,02,13,14.80
2015,08,19,02,14,14.80
2015,08,19,02,15,14.80
2015,08,19,02,16,14.80
2015,08,19,02,17,14.80
2015,08,19,02,18,14.80
2015,08,19,02,19,14.80
2015,08,19,02,20,14.80
2015,08,19,02,21,14.80
2015,08,19,02,22,14.80
2015,08,19,02,23,14.80
2015,08,19,02,24,14.80
2015,08,19,02,25,14.70
2015,08,19,02,26,14.70
2015,08,19,02,27,14.70
2015,08,19,02,28,14.70
2015,08,19,02,29,14.70
2015,08,19,02,30,14.70
2015,08,19,02,31,14.60
2015,08,19,02,32,14.60
2015,08,19,02,33,14.60
2015,08,19,02,34,14.60
2015,08,19,02,35,14.60
2015,08,19,02,36,14.60
2015,08,19,02,37,14.60
2015,08,19,02,38,14.60
2015,08,19,02,39,14.60
2015,08,19,02,40,14.50
2015,08,19,02,41,14.50
2015,08,19,02,42,14.40
2015,08,19,02,43,14.40
2015,08,19,02,44,14.40
2015,08,19,02,45,14.40
2015,08,19,02,46,14.40
2015,08,19,02,47,14.40
2015,08,19,02,48,14.40
2015,08,19,02,49,14.40
2015,08,19,02,50,14.30
2015,08,19,02,51,14.30
2015,08,19,02,52,14.30
2015,08,19,02,53,14.30
2015,08,19,02,54,14.20
2015,08,19,02,55,14.20
2015,08,19,02,56,14.20
2015,08,19,02,57,14.20
2015,08,19,02,58,14.20
2015,08,19,02,59,14.10
2015,08,19,03,00,14.10
2015,08,19,03,01,14.10
2015,08,19,03,02,14.10
2015,08,19,03,03,14.10
2015,08,19,03,04,14.10
2015,08,19,03,05,14.10
2015,08,19,03,06,14.10
2015,08,19,03,07,14.10
2015,08,19,03,08,14.10
2015,08,19,03,09,14.10
2015,08,19,03,10,14.10
2015,08,19,03,11,14.10
2015,08,19,03,12,14.10
2015,08,19,03,13,14.10
2015,08,19,03,14,14.10
2015,08,19,03,15,14.10
2015,08,19,03,16,14.10
2015,08,19,03,17,14.10
2015,08,19,03,18,14.00
2015,08,19,03,19,14.00
2015,08,19,03,20,13.90
2015,08,19,03,21,13.90
2015,08,19,03,22,13.90
2015,08,19,03,23,13.80
2015,08,19,03,24,13.80
2015,08,19,03,25,13.80
2015,08,19,03,26,13.80
2015,08,19,03,27,13.70
2015,08,19,03,28,13.70
2015,08,19,03,29,13.70
2015,08,19,03,30,13.70
2015,08,19,03,31,13.70
2015,08,19,03,32,13.70
2015,08,19,03,33,13.70
2015,08,19,03,34,13.70
2015,08,19,03,35,13.70
2015,08,19,03,36,13.70
2015,08,19,03,37,13.70
2015,08,19,03,38,13.60
2015,08,19,03,39,13.60
2015,08,19,03,40,13.60
2015,08,19,03,41,13.50
2015,08,19,03,42,13.50
2015,08,19,03,43,13.50
2015,08,19,03,44,13.40
2015,08,19,03,45,13.40
2015,08,19,03,46,13.40
2015,08,19,03,47,13.40
2015,08,19,03,48,13.40
2015,08,19,03,49,13.40
2015,08,19,03,50,13.40
2015,08,19,03,51,13.40
2015,08,19,03,52,13.40
2015,08,19,03,53,13.40
2015,08,19,03,54,13.40
2015,08,19,03,55,13.40
2015,08,19,03,56,13.40
2015,08,19,03,57,13.40
2015,08,19,03,58,13.40
2015,08,19,03,59,13.40
2015,08,19,04,00,13.40
2015,08,19,04,01,13.40
2015,08,19,04,02,13.40
2015,08,19,04,03,13.40
2015,08,19,04,04,13.50
2015,08,19,04,05,13.50
2015,08,19,04,06,13.50
2015,08,19,04,07,13.50
2015,08,19,04,08,13.40
2015,08,19,04,09,13.40
2015,08,19,04,10,13.40
2015,08,19,04,11,13.40
2015,08,19,04,12,13.40
2015,08,19,04,13,13.40
2015,08,19,04,14,13.40
2015,08,19,04,15,13.40
2015,08,19,04,16,13.40
2015,08,19,04,17,13.40
2015,08,19,04,18,13.40
2015,08,19,04,19,13.40
2015,08,19,04,20,13.40
2015,08,19,04,21,13.40
2015,08,19,04,22,13.40
2015,08,19,04,23,13.40
2015,08,19,04,24,13.40
2015,08,19,04,25,13.40
2015,08,19,04,26,13.40
2015,08,19,04,27,13.40
2015,08,19,04,28,13.40
2015,08,19,04,29,13.40
2015,08,19,04,30,13.30
2015,08,19,04,31,13.30
2015,08,19,04,32,13.30
2015,08,19,04,33,13.30
2015,08,19,04,34,13.20
2015,08,19,04,35,13.20
2015,08,19,04,36,13.20
2015,08,19,04,37,13.20
2015,08,19,04,38,13.20
2015,08,19,04,39,13.20
2015,08,19,04,40,13.20
2015,08,19,04,41,13.20
2015,08,19,04,42,13.20
2015,08,19,04,43,13.20
2015,08,19,04,44,13.20
2015,08,19,04,45,13.20
2015,08,19,04,46,13.20
2015,08,19,04,47,13.20
2015,08,19,04,48,13.20
2015,08,19,04,49,13.20
2015,08,19,04,50,13.20
2015,08,19,04,51,13.20
2015,08,19,04,52,13.20
2015,08,19,04,53,13.20
2015,08,19,04,54,13.20
2015,08,19,04,55,13.20
2015,08,19,04,56,13.20
2015,08,19,04,57,13.20
2015,08,19,04,58,13.20
2015,08,19,04,59,13.10
2015,08,19,05,00,13.10
2015,08,19,05,01,13.10
2015,08,19,05,02,13.10
2015,08,19,05,03,13.10
2015,08,19,05,04,13.10
2015,08,19,05,05,13.00
2015,08,19,05,06,13.00
2015,08,19,05,07,13.00
2015,08,19,05,08,13.10
2015,08,19,05,09,13.10
2015,08,19,05,10,13.10
2015,08,19,05,11,13.10
2015,08,19,05,12,13.10
2015,08,19,05,13,13.20
2015,08,19,05,14,13.20
2015,08,19,05,15,13.20
2015,08,19,05,16,13.20
2015,08,19,05,17,13.20
2015,08,19,05,18,13.10
2015,08,19,05,19,13.10
2015,08,19,05,20,13.10
2015,08,19,05,21,13.10
2015,08,19,05,22,13.10
2015,08,19,05,23,13.10
2015,08,19,05,24,13.20
2015,08,19,05,25,13.20
2015,08,19,05,26,13.20
2015,08,19,05,27,13.20
2015,08,19,05,28,13.20
2015,08,19,05,29,13.20
2015,08,19,05,30,13.20
2015,08,19,05,31,13.20
2015,08,19,05,32,13.20
2015,08,19,05,33,13.10
2015,08,19,05,34,13.10
2015,08,19,05,35,13.10
2015,08,19,05,36,13.10
2015,08,19,05,37,13.10
2015,08,19,05,38,13.10
2015,08,19,05,39,13.00
2015,08,19,05,40,13.00
2015,08,19,05,41,13.00
2015,08,19,05,42,12.90
2015,08,19,05,43,12.90
2015,08,19,05,44,12.90
2015,08,19,05,45,12.90
2015,08,19,05,46,12.90
2015,08,19,05,47,12.80
2015,08,19,05,48,12.80
2015,08,19,05,49,12.80
2015,08,19,05,50,12.80
2015,08,19,05,51,12.80
2015,08,19,05,52,12.70
2015,08,19,05,53,12.70
2015,08,19,05,54,12.70
2015,08,19,05,55,12.70
2015,08,19,05,56,12.70
2015,08,19,05,57,12.70
2015,08,19,05,58,12.70
2015,08,19,05,59,12.70
2015,08,19,06,00,12.70
2015,08,19,06,01,12.60
2015,08,19,06,02,12.60
2015,08,19,06,03,12.60
2015,08,19,06,04,12.60
2015,08,19,06,05,12.70
2015,08,19,06,06,12.70
2015,08,19,06,07,12.70
2015,08,19,06,08,12.70
2015,08,19,06,09,12.70
2015,08,19,06,10,12.70
2015,08,19,06,11,12.70
2015,08,19,06,12,12.70
2015,08,19,06,13,12.70
2015,08,19,06,14,12.70
2015,08,19,06,15,12.70
2015,08,19,06,16,12.70
2015,08,19,06,17,12.70
2015,08,19,06,18,12.70
2015,08,19,06,19,12.70
2015,08,19,06,20,12.70
2015,08,19,06,21,12.70
2015,08,19,06,22,12.70
2015,08,19,06,23,12.70
2015,08,19,06,24,12.70
2015,08,19,06,25,12.70
2015,08,19,06,26,12.70
2015,08,19,06,27,12.70
2015,08,19,06,28,12.70
2015,08,19,06,29,12.70
2015,08,19,06,30,12.70
2015,08,19,06,31,12.70
2015,08,19,06,32,12.70
2015,08,19,06,33,12.70
2015,08,19,06,34,12.70
2015,08,19,06,35,12.60
2015,08,19,06,36,12.60
2015,08,19,06,37,12.60
2015,08,19,06,38,12.60
2015,08,19,06,39,12.60
2015,08,19,06,40,12.60
2015,08,19,06,41,12.60
2015,08,19,06,42,12.60
2015,08,19,06,43,12.60
2015,08,19,06,44,12.60
2015,08,19,06,45,12.60
2015,08,19,06,46,12.60
2015,08,19,06,47,12.60
2015,08,19,06,48,12.60
2015,08,19,06,49,12.60
2015,08,19,06,50,12.60
2015,08,19,06,51,12.60
2015,08,19,06,52,12.60
2015,08,19,06,53,12.70
2015,08,19,06,54,12.70
2015,08,19,06,55,12.80
2015,08,19,06,56,12.80
2015,08,19,06,57,12.90
2015,08,19,06,58,12.90
2015,08,19,06,59,12.90
2015,08,19,07,00,13.00
2015,08,19,07,01,13.00
2015,08,19,07,02,13.00
2015,08,19,07,03,13.10
2015,08,19,07,04,13.10
2015,08,19,07,05,13.10
2015,08,19,07,06,13.10
2015,08,19,07,07,13.10
2015,08,19,07,08,13.20
2015,08,19,07,09,13.20
2015,08,19,07,10,13.20
2015,08,19,07,11,13.20
2015,08,19,07,12,13.20
2015,08,19,07,13,13.30
2015,08,19,07,14,13.30
2015,08,19,07,15,13.30
2015,08,19,07,16,13.30
2015,08,19,07,17,13.30
2015,08,19,07,18,13.40
2015,08,19,07,19,13.40
2015,08,19,07,20,13.50
2015,08,19,07,21,13.50
2015,08,19,07,22,13.60
2015,08,19,07,23,13.70
2015,08,19,07,24,13.70
2015,08,19,07,25,13.80
2015,08,19,07,26,13.90
2015,08,19,07,27,14.00
2015,08,19,07,28,14.10
2015,08,19,07,29,14.20
2015,08,19,07,30,14.30
2015,08,19,07,31,14.30
2015,08,19,07,32,14.40
2015,08,19,07,33,14.40
2015,08,19,07,34,14.50
2015,08,19,07,35,14.60
2015,08,19,07,36,14.60
2015,08,19,07,37,14.60
2015,08,19,07,38,14.70
2015,08,19,07,39,14.70
2015,08,19,07,40,14.70
2015,08,19,07,41,14.70
2015,08,19,07,42,14.70
2015,08,19,07,43,14.70
2015,08,19,07,44,14.70
2015,08,19,07,45,14.70
2015,08,19,07,46,14.80
2015,08,19,07,47,14.80
2015,08,19,07,48,14.80
2015,08,19,07,49,14.80
2015,08,19,07,50,14.80
2015,08,19,07,51,14.80
2015,08,19,07,52,14.90
2015,08,19,07,53,14.90
2015,08,19,07,54,15.00
2015,08,19,07,55,15.00
2015,08,19,07,56,15.10
2015,08,19,07,57,15.20
2015,08,19,07,58,15.30
2015,08,19,07,59,15.30
2015,08,19,08,00,15.40
2015,08,19,08,01,15.40
2015,08,19,08,02,15.50
2015,08,19,08,03,15.60
2015,08,19,08,04,15.60
2015,08,19,08,05,15.70
2015,08,19,08,06,15.80
2015,08,19,08,07,15.90
2015,08,19,08,08,15.90
2015,08,19,08,09,16.10
2015,08,19,08,10,16.20
2015,08,19,08,11,16.20
2015,08,19,08,12,16.30
2015,08,19,08,13,16.40
2015,08,19,08,14,16.50
2015,08,19,08,15,16.60
2015,08,19,08,16,16.70
2015,08,19,08,17,16.80
2015,08,19,08,18,16.90
2015,08,19,08,19,17.10
2015,08,19,08,20,17.20
2015,08,19,08,21,17.30
2015,08,19,08,22,17.40
2015,08,19,08,23,17.60
2015,08,19,08,24,17.70
2015,08,19,08,25,17.80
2015,08,19,08,26,18.00
2015,08,19,08,27,18.10
2015,08,19,08,28,18.20
2015,08,19,08,29,18.40
2015,08,19,08,30,18.50
2015,08,19,08,31,18.70
2015,08,19,08,32,18.80
2015,08,19,08,33,19.00
2015,08,19,08,34,19.20
2015,08,19,08,35,19.30
2015,08,19,08,36,19.40
2015,08,19,08,37,19.60
2015,08,19,08,38,19.60
2015,08,19,08,39,19.70
2015,08,19,08,40,19.70
2015,08,19,08,41,19.70
2015,08,19,08,42,19.60
2015,08,19,08,43,19.60
2015,08,19,08,44,19.60
2015,08,19,08,45,19.60
2015,08,19,08,46,19.60
2015,08,19,08,47,19.60
2015,08,19,08,48,19.60
2015,08,19,08,49,19.70
2015,08,19,08,50,19.80
2015,08,19,08,51,19.80
2015,08,19,08,52,20.00
2015,08,19,08,53,20.10
2015,08,19,08,54,20.20
2015,08,19,08,55,20.30
2015,08,19,08,56,20.40
2015,08,19,08,57,20.50
2015,08,19,08,58,20.60
2015,08,19,08,59,20.70
2015,08,19,09,00,20.80
2015,08,19,09,01,20.90
2015,08,19,09,02,21.00
2015,08,19,09,03,21.00
2015,08,19,09,04,21.10
2015,08,19,09,05,21.20
2015,08,19,09,06,21.20
2015,08,19,09,07,21.30
2015,08,19,09,08,21.30
2015,08,19,09,09,21.30
2015,08,19,09,10,21.30
2015,08,19,09,11,21.30
2015,08,19,09,12,21.40
2015,08,19,09,13,21.40
2015,08,19,09,14,21.40
2015,08,19,09,15,21.50
2015,08,19,09,16,21.50
2015,08,19,09,17,21.50
2015,08,19,09,18,21.50
2015,08,19,09,19,21.50
2015,08,19,09,20,21.50
2015,08,19,09,21,21.60
2015,08,19,09,22,21.60
2015,08,19,09,23,21.60
2015,08,19,09,24,21.70
2015,08,19,09,25,21.80
2015,08,19,09,26,21.80
2015,08,19,09,27,21.80
2015,08,19,09,28,21.80
2015,08,19,09,29,21.80
2015,08,19,09,30,21.80
2015,08,19,09,31,21.70
2015,08,19,09,32,21.70
2015,08,19,09,33,21.70
2015,08,19,09,34,21.70
2015,08,19,09,35,21.70
2015,08,19,09,36,21.70
2015,08,19,09,37,21.70
2015,08,19,09,38,21.70
2015,08,19,09,39,21.60
2015,08,19,09,40,21.60
2015,08,19,09,41,21.60
2015,08,19,09,42,21.60
2015,08,19,09,43,21.60
2015,08,19,09,44,21.60
2015,08,19,09,45,21.60
2015,08,19,09,46,21.50
2015,08,19,09,47,21.50
2015,08,19,09,48,21.40
2015,08,19,09,49,21.30
2015,08,19,09,50,21.20
2015,08,19,09,51,21.10
2015,08,19,09,52,21.10
2015,08,19,09,53,21.10
2015,08,19,09,54,21.10
2015,08,19,09,55,21.10
2015,08,19,09,56,21.00
2015,08,19,09,57,21.00
2015,08,19,09,58,21.00
2015,08,19,09,59,21.00
2015,08,19,10,00,21.00
2015,08,19,10,01,21.00
2015,08,19,10,02,21.00
2015,08,19,10,03,21.10
2015,08,19,10,04,21.20
2015,08,19,10,05,21.20
2015,08,19,10,06,21.30
2015,08,19,10,07,21.30
2015,08,19,10,08,21.30
2015,08,19,10,09,21.30
2015,08,19,10,10,21.20
2015,08,19,10,11,21.20
2015,08,19,10,12,21.20
2015,08,19,10,13,21.20
2015,08,19,10,14,21.30
2015,08,19,10,15,21.30
2015,08,19,10,16,21.40
2015,08,19,10,17,21.40
2015,08,19,10,18,21.50
2015,08,19,10,19,21.60
2015,08,19,10,20,21.60
2015,08,19,10,21,21.70
2015,08,19,10,22,21.70
2015,08,19,10,23,21.80
2015,08,19,10,24,21.90
2015,08,19,10,25,21.90
2015,08,19,10,26,21.90
2015,08,19,10,27,21.90
2015,08,19,10,28,21.80
2015,08,19,10,29,21.80
2015,08,19,10,30,21.80
2015,08,19,10,31,21.80
2015,08,19,10,32,21.80
2015,08,19,10,33,21.90
2015,08,19,10,34,21.90
2015,08,19,10,35,21.90
2015,08,19,10,36,21.90
2015,08,19,10,37,21.90
2015,08,19,10,38,21.90
2015,08,19,10,39,21.90
2015,08,19,10,40,21.90
2015,08,19,10,41,21.90
2015,08,19,10,42,21.90
2015,08,19,10,43,22.00
2015,08,19,10,44,22.10
2015,08,19,10,45,22.10
2015,08,19,10,46,22.20
2015,08,19,10,47,22.20
2015,08,19,10,48,22.20
2015,08,19,10,49,22.20
2015,08,19,10,50,22.10
2015,08,19,10,51,22.10
2015,08,19,10,52,22.00
2015,08,19,10,53,21.90
2015,08,19,10,54,22.00
2015,08,19,10,55,22.00
2015,08,19,10,56,22.10
2015,08,19,10,57,22.10
2015,08,19,10,58,22.10
2015,08,19,10,59,22.20
2015,08,19,11,00,22.20
2015,08,19,11,01,22.20
2015,08,19,11,02,22.20
2015,08,19,11,03,22.30
2015,08,19,11,04,22.30
2015,08,19,11,05,22.40
2015,08,19,11,06,22.50
2015,08,19,11,07,22.50
2015,08,19,11,08,22.60
2015,08,19,11,09,22.50
2015,08,19,11,10,22.50
2015,08,19,11,11,22.60
2015,08,19,11,12,22.60
2015,08,19,11,13,22.60
2015,08,19,11,14,22.50
2015,08,19,11,15,22.40
2015,08,19,11,16,22.40
2015,08,19,11,17,22.40
2015,08,19,11,18,22.30
2015,08,19,11,19,22.30
2015,08,19,11,20,22.30
2015,08,19,11,21,22.30
2015,08,19,11,22,22.40
2015,08,19,11,23,22.40
2015,08,19,11,24,22.50
2015,08,19,11,25,22.50
2015,08,19,11,26,22.50
2015,08,19,11,27,22.50
2015,08,19,11,28,22.50
2015,08,19,11,29,22.50
2015,08,19,11,30,22.60
2015,08,19,11,31,22.60
2015,08,19,11,32,22.70
2015,08,19,11,33,22.70
2015,08,19,11,34,22.80
2015,08,19,11,35,22.80
2015,08,19,11,36,22.90
2015,08,19,11,37,23.00
2015,08,19,11,38,23.10
2015,08,19,11,39,23.20
2015,08,19,11,40,23.20
2015,08,19,11,41,23.30
2015,08,19,11,42,23.30
2015,08,19,11,43,23.40
2015,08,19,11,44,23.50
2015,08,19,11,45,23.60
2015,08,19,11,46,23.70
2015,08,19,11,47,23.70
2015,08,19,11,48,23.60
2015,08,19,11,49,23.60
2015,08,19,11,50,23.70
2015,08,19,11,51,23.70
2015,08,19,11,52,23.70
2015,08,19,11,53,23.70
2015,08,19,11,54,23.70
2015,08,19,11,55,23.80
2015,08,19,11,56,23.80
2015,08,19,11,57,23.80
2015,08,19,11,58,23.80
2015,08,19,11,59,23.90
2015,08,19,12,00,23.80
2015,08,19,12,01,23.80
2015,08,19,12,02,23.70
2015,08,19,12,03,23.70
2015,08,19,12,04,23.60
2015,08,19,12,05,23.60
2015,08,19,12,06,23.60
2015,08,19,12,07,23.50
2015,08,19,12,08,23.50
2015,08,19,12,09,23.50
2015,08,19,12,10,23.50
2015,08,19,12,11,23.40
2015,08,19,12,12,23.40
2015,08,19,12,13,23.40
2015,08,19,12,14,23.40
2015,08,19,12,15,23.40
2015,08,19,12,16,23.40
2015,08,19,12,17,23.30
2015,08,19,12,18,23.30
2015,08,19,12,19,23.30
2015,08,19,12,20,23.30
2015,08,19,12,21,23.30
2015,08,19,12,22,23.30
2015,08,19,12,23,23.20
2015,08,19,12,24,23.20
2015,08,19,12,25,23.20
2015,08,19,12,26,23.20
2015,08,19,12,27,23.20
2015,08,19,12,28,23.10
2015,08,19,12,29,23.00
2015,08,19,12,30,23.00
2015,08,19,12,31,22.90
2015,08,19,12,32,22.90
2015,08,19,12,33,22.90
2015,08,19,12,34,22.90
2015,08,19,12,35,22.90
2015,08,19,12,36,23.00
2015,08,19,12,37,23.10
2015,08,19,12,38,23.10
2015,08,19,12,39,23.20
2015,08,19,12,40,23.30
2015,08,19,12,41,23.30
2015,08,19,12,42,23.40
2015,08,19,12,43,23.40
2015,08,19,12,44,23.40
2015,08,19,12,45,23.40
2015,08,19,12,46,23.50
2015,08,19,12,47,23.50
2015,08,19,12,48,23.50
2015,08,19,12,49,23.50
2015,08,19,12,50,23.50
2015,08,19,12,51,23.50
2015,08,19,12,52,23.50
2015,08,19,12,53,23.50
2015,08,19,12,54,23.50
2015,08,19,12,55,23.40
2015,08,19,12,56,23.40
2015,08,19,12,57,23.40
2015,08,19,12,58,23.40
2015,08,19,12,59,23.40
2015,08,19,13,00,23.40
2015,08,19,13,01,23.40
2015,08,19,13,02,23.40
2015,08,19,13,03,23.20
2015,08,19,13,04,23.10
2015,08,19,13,05,22.90
2015,08,19,13,06,22.90
2015,08,19,13,07,22.80
2015,08,19,13,08,22.80
2015,08,19,13,09,22.80
2015,08,19,13,10,22.70
2015,08,19,13,11,22.70
2015,08,19,13,12,22.70
2015,08,19,13,13,22.50
2015,08,19,13,14,22.40
2015,08,19,13,15,22.40
2015,08,19,13,16,22.40
2015,08,19,13,17,22.40
2015,08,19,13,18,22.40
2015,08,19,13,19,22.50
2015,08,19,13,20,22.50
2015,08,19,13,21,22.40
2015,08,19,13,22,22.50
2015,08,19,13,23,22.50
2015,08,19,13,24,22.40
2015,08,19,13,25,22.30
2015,08,19,13,26,22.30
2015,08,19,13,27,22.30
2015,08,19,13,28,22.30
2015,08,19,13,29,22.30
2015,08,19,13,30,22.30
2015,08,19,13,31,22.40
2015,08,19,13,32,22.50
2015,08,19,13,33,22.40
2015,08,19,13,34,22.40
2015,08,19,13,35,22.40
2015,08,19,13,36,22.40
2015,08,19,13,37,22.50
2015,08,19,13,38,22.50
2015,08,19,13,39,22.50
2015,08,19,13,40,22.50
2015,08,19,13,41,22.60
2015,08,19,13,42,22.60
2015,08,19,13,43,22.60
2015,08,19,13,44,22.60
2015,08,19,13,45,22.70
2015,08,19,13,46,22.80
2015,08,19,13,47,22.80
2015,08,19,13,48,22.80
2015,08,19,13,49,22.80
2015,08,19,13,50,22.80
2015,08,19,13,51,22.80
2015,08,19,13,52,22.90
2015,08,19,13,53,22.90
2015,08,19,13,54,22.90
2015,08,19,13,55,22.90
2015,08,19,13,56,22.90
2015,08,19,13,57,23.00
2015,08,19,13,58,23.00
2015,08,19,13,59,23.10
2015,08,19,14,00,23.10
2015,08,19,14,01,23.10
2015,08,19,14,02,23.20
2015,08,19,14,03,23.20
2015,08,19,14,04,23.30
2015,08,19,14,05,23.30
2015,08,19,14,06,23.30
2015,08,19,14,07,23.40
2015,08,19,14,08,23.40
2015,08,19,14,09,23.40
2015,08,19,14,10,23.40
2015,08,19,14,11,23.50
2015,08,19,14,12,23.40
2015,08,19,14,13,23.40
2015,08,19,14,14,23.40
2015,08,19,14,15,23.50
2015,08,19,14,16,23.50
2015,08,19,14,17,23.60
2015,08,19,14,18,23.60
2015,08,19,14,19,23.60
2015,08,19,14,20,23.60
2015,08,19,14,21,23.60
2015,08,19,14,22,23.60
2015,08,19,14,23,23.60
2015,08,19,14,24,23.50
2015,08,19,14,25,23.50
2015,08,19,14,26,23.40
2015,08,19,14,27,23.30
2015,08,19,14,28,23.30
2015,08,19,14,29,23.30
2015,08,19,14,30,23.40
2015,08,19,14,31,23.40
2015,08,19,14,32,23.50
2015,08,19,14,33,23.50
2015,08,19,14,34,23.60
2015,08,19,14,35,23.60
2015,08,19,14,36,23.70
2015,08,19,14,37,23.70
2015,08,19,14,38,23.70
2015,08,19,14,39,23.80
2015,08,19,14,40,23.80
2015,08,19,14,41,23.90
2015,08,19,14,42,24.00
2015,08,19,14,43,24.10
2015,08,19,14,44,24.20
2015,08,19,14,45,24.40
2015,08,19,14,46,24.50
2015,08,19,14,47,24.70
2015,08,19,14,48,24.80
2015,08,19,14,49,24.90
2015,08,19,14,50,25.00
2015,08,19,14,51,25.10
2015,08,19,14,52,25.20
2015,08,19,14,53,25.30
2015,08,19,14,54,25.30
2015,08,19,14,55,25.30
2015,08,19,14,56,25.40
2015,08,19,14,57,25.50
2015,08,19,14,58,25.60
2015,08,19,14,59,25.60
2015,08,19,15,00,25.80
2015,08,19,15,01,25.90
2015,08,19,15,02,26.10
2015,08,19,15,03,26.20
2015,08,19,15,04,26.30
2015,08,19,15,05,26.40
2015,08,19,15,06,26.50
2015,08,19,15,07,26.60
2015,08,19,15,08,26.70
2015,08,19,15,09,26.80
2015,08,19,15,10,26.90
2015,08,19,15,11,26.90
2015,08,19,15,12,27.00
2015,08,19,15,13,27.00
2015,08,19,15,14,27.00
2015,08,19,15,15,27.00
2015,08,19,15,16,27.00
2015,08,19,15,17,27.00
2015,08,19,15,18,26.90
2015,08,19,15,19,26.90
2015,08,19,15,20,26.80
2015,08,19,15,21,26.80
2015,08,19,15,22,26.80
2015,08,19,15,23,26.80
2015,08,19,15,24,26.80
2015,08,19,15,25,26.70
2015,08,19,15,26,26.70
2015,08,19,15,27,26.70
2015,08,19,15,28,26.70
2015,08,19,15,29,26.70
2015,08,19,15,30,26.70
2015,08,19,15,31,26.70
2015,08,19,15,32,26.60
2015,08,19,15,33,26.60
2015,08,19,15,34,26.50
2015,08,19,15,35,26.40
2015,08,19,15,36,26.30
2015,08,19,15,37,26.30
2015,08,19,15,38,26.30
2015,08,19,15,39,26.30
2015,08,19,15,40,26.30
2015,08,19,15,41,26.30
2015,08,19,15,42,26.30
2015,08,19,15,43,26.30
2015,08,19,15,44,26.30
2015,08,19,15,45,26.30
2015,08,19,15,46,26.30
2015,08,19,15,47,26.20
2015,08,19,15,48,26.10
2015,08,19,15,49,26.10
2015,08,19,15,50,26.10
2015,08,19,15,51,26.00
2015,08,19,15,52,26.00
2015,08,19,15,53,25.90
2015,08,19,15,54,25.80
2015,08,19,15,55,25.80
2015,08,19,15,56,25.70
2015,08,19,15,57,25.60
2015,08,19,15,58,25.40
2015,08,19,15,59,25.30
2015,08,19,16,00,25.10
2015,08,19,16,01,24.90
2015,08,19,16,02,24.80
2015,08,19,16,03,24.60
2015,08,19,16,04,24.40
2015,08,19,16,05,24.20
2015,08,19,16,06,24.10
2015,08,19,16,07,24.00
2015,08,19,16,08,23.90
2015,08,19,16,09,23.80
2015,08,19,16,10,23.60
2015,08,19,16,11,23.50
2015,08,19,16,12,23.30
2015,08,19,16,13,23.00
2015,08,19,16,14,22.80
2015,08,19,16,15,22.60
2015,08,19,16,16,22.40
2015,08,19,16,17,22.20
2015,08,19,16,18,22.10
2015,08,19,16,19,22.00
2015,08,19,16,20,22.00
2015,08,19,16,21,22.00
2015,08,19,16,22,21.90
2015,08,19,16,23,21.80
2015,08,19,16,24,21.70
2015,08,19,16,25,21.50
2015,08,19,16,26,21.40
2015,08,19,16,27,21.30
2015,08,19,16,28,21.20
2015,08,19,16,29,21.00
2015,08,19,16,30,20.90
2015,08,19,16,31,20.80
2015,08,19,16,32,20.70
2015,08,19,16,33,20.60
2015,08,19,16,34,20.60
2015,08,19,16,35,20.50
2015,08,19,16,36,20.50
2015,08,19,16,37,20.60
2015,08,19,16,38,20.70
2015,08,19,16,39,20.80
2015,08,19,16,40,20.80
2015,08,19,16,41,20.90
2015,08,19,16,42,20.90
2015,08,19,16,43,20.90
2015,08,19,16,44,21.00
2015,08,19,16,45,21.00
2015,08,19,16,46,21.10
2015,08,19,16,47,21.20
2015,08,19,16,48,21.30
2015,08,19,16,49,21.30
2015,08,19,16,50,21.30
2015,08,19,16,51,21.30
2015,08,19,16,52,21.30
2015,08,19,16,53,21.30
2015,08,19,16,54,21.40
2015,08,19,16,55,21.40
2015,08,19,16,56,21.40
2015,08,19,16,57,21.50
2015,08,19,16,58,21.50
2015,08,19,16,59,21.60
2015,08,19,17,00,21.60
2015,08,19,17,01,21.60
2015,08,19,17,02,21.60
2015,08,19,17,03,21.60
2015,08,19,17,04,21.50
2015,08,19,17,05,21.50
2015,08,19,17,06,21.40
2015,08,19,17,07,21.40
2015,08,19,17,08,21.40
2015,08,19,17,09,21.30
2015,08,19,17,10,21.30
2015,08,19,17,11,21.20
2015,08,19,17,12,21.00
2015,08,19,17,13,20.90
2015,08,19,17,14,20.80
2015,08,19,17,15,20.70
2015,08,19,17,16,20.70
2015,08,19,17,17,20.70
2015,08,19,17,18,20.70
2015,08,19,17,19,20.70